Regional Weather Roundup
Issued by NWS

Home | Current Version | Previous Version | Graphics & Text | Print | Product List | Glossary On
Versions: 1 2 3 4 5 6 7 8 9 10 11 12 13 14 15 16 17 18 19 20 21 22 23 24 25 26 27 28 29 30 31 32 33 34 35 36 37 38 39 40 41 42 43 44 45 46 47 48 49 50
000
ASUS43 KLSX 040659
RWRMO

WEATHER SUMMARY FOR MISSOURI
NATIONAL WEATHER SERVICE SPRINGFIELD MO
100 AM CST WED MAR 04 2015

NOTE: "FAIR" INDICATES FEW OR NO CLOUDS BELOW 12,000 FEET WITH NO
       SIGNIFICANT WEATHER AND/OR OBSTRUCTIONS TO VISIBILITY.
       CURRENT SKY AND/OR WEATHER CONDITIONS ARE NOT AVAILABLE FOR
       CHILLICOTHE AND FARMINGTON.

MOZ001>031-035>038-043-044-053-054-040800-
...NORTHERN AND WESTERN MISSOURI...

CITY           SKY/WX    TMP DP  RH WIND       PRES   REMARKS
KANSAS CTY INT PTCLDY    25  17  72 N12       30.08R WCI  14
KANSAS C DTWN  PTCLDY    29  18  63 N14       30.10R WCI  18
LEE`S SUMMIT   CLOUDY    29  19  66 N10       30.08R WCI  20
ST JOSEPH      PTCLDY    20  10  65 N21       30.14R WCI   4
CHILLICOTHE      N/A     27  17  66 N10G20    30.07R WCI  17

$$
MOZ066>068-077>081-088>096-101>105-040800-
...SOUTHWEST MISSOURI...

CITY           SKY/WX    TMP DP  RH WIND       PRES   REMARKS
SPRINGFIELD    CLOUDY    37  34  89 N15       29.93S FOG     WCI  28
JOPLIN         CLOUDY    36  31  82 N10       29.96S WCI  28

$$
MOZ032>034-039>042-045>050-055>058-069>072-040800-
...CENTRAL MISSOURI...

CITY           SKY/WX    TMP DP  RH WIND       PRES   REMARKS
COLUMBIA       CLOUDY    34  29  82 N7        29.99R WCI  28
JEFFERSON CITY CLOUDY    36  29  75 NW5       30.01R
ROLLA          LGT RAIN  33  31  92 N8        29.94R FOG     WCI  26
SEDALIA        CLOUDY    33  27  78 N12       30.02R WCI  24
OSAGE BEACH    CLOUDY    34  30  86 CALM      29.97F

$$
MOZ051-052-059>065-040800-
...EAST CENTRAL MISSOURI...

CITY           SKY/WX    TMP DP  RH WIND       PRES   REMARKS
ST LOUIS INTL  LGT RAIN  36  30  79 N5        29.98R
SPIRIT OF STL  CLOUDY    35  33  92 NW6       29.97R
ST CHARLES     CLOUDY    35  29  78 N6        29.98R

$$
MOZ072>076-082>087-097>100-106>115-040800-
...SOUTH CENTRAL AND SOUTHEAST MISSOURI...

CITY           SKY/WX    TMP DP  RH WIND       PRES   REMARKS
CAPE GIRARDEAU RAIN      41  41 100 N7        29.89F VSB 3/4
FARMINGTON     CLOUDY    37  37 100 N6        29.94F
POPLAR BLUFF   TSTM      42  40  92 NE6       29.90R FOG
WEST PLAINS    LGT RAIN  41  39  93 NE3       29.90R FOG

$$


USA.gov is the U.S. government's official web portal to all federal, state and local government web resources and services.